Location: Bishausen
(51.6334°N, 9.9631°E)
Time: 17:23:20
(UTC+00:00)

CZ-2C R/B - Pass Details

Date: 23 May 2024
Orbit: 784 x 868 km, 98.3° (Epoch: 23 June)

Event Time Altitude Azimuth Distance (km) Brightness Sun altitude
Exits shadow 00:47:48 - 148° (SSE) 2,660 5.0 -15.0°
Reaches altitude 10° 00:48:36 10° 147° (SSE) 2,340 4.7 -15.0°
Maximum altitude 00:53:39 58° 69° (ENE) 915 3.1 -14.7°
Drops below altitude 10° 00:58:45 10° 352° (N) 2,367 5.9 -14.4°
Sets 01:01:07 0° 348° (NNW) 3,308 6.7 -14.2°
